Zurück zum Katalog

CZ-3C R/B

AktivHEO
NORAD 65487·ROCKET BODY·🇨🇳 China

Gestartet Sep 5, 2025 von Xichang Satellite Launch Center

Loading…

Nächste Überflüge (nächste 24 Stunden)

TLE

AktuellSource: Space-Track

Epoche: Sep 14, 2026, 05:58 UTC

1 65487U 25196B   26257.24911993  .00012922  00000-0  94949-3 0  9997
2 65487  28.0460 211.5158 6939089  45.6024 353.4455  2.75211558 10219

Verfolge CZ-3C R/B in Echtzeit mit AllMySat

Download on the App Store